Weather History for KFSD - September, 2013

Change the Weather History Date:

Sunday, September 22, 2013

  Actual Average Record
Temperature  
Mean Temperature 67 °F 58 °F  
Max Temperature 83 °F 71 °F 94 °F (1908)
Min Temperature 51 °F 46 °F 24 °F (1974)
Degree Days  
Heating Degree Days 0 8  
Month to date heating degree days 54 98  
Since 1 July heating degree days 88 129  
Cooling Degree Days 2 1  
Month to date cooling degree days 108 55  
Year to date cooling degree days 762 680  
Growing Degree Days 16 (Base 50)    
Moisture  
Dew Point 50 °F    
Average Humidity 56    
Maximum Humidity 86    
Minimum Humidity 25    
Precipitation  
Precipitation 0.00 in 0.09 in 1.67 in (1895)
Month to date precipitation 0.29 2.07  
Year to date precipitation 20.71 21.46  
Snow  
Snow 0.00 in 0.00 in 0.00 in ()
Month to date snowfall 0.0 0.0  
Since 1 July snowfall 0.0 0.0  
Since 1 September snowfall 0.0 0.0  
Snow Depth 0.00 in    
Sea Level Pressure  
Sea Level Pressure 29.77 in    
Wind  
Wind Speed 13 mph (SSE)    
Max Wind Speed 26 mph    
Max Gust Speed 33 mph    
Visibility 10 miles    
Events      
T = Trace of Precipitation, MM = Missing Value Source: NWS Daily Summary

Daily Weather History Graph

Daily Weather History Graph

Search for Another Location

Airport or City:

Trip Planner

Search our weather history database for the weather conditions in past years. The results will help you decide how hot, cold, wet, or windy it might be!

Date:

Astronomy

Sep. 22, 2013 Rise Set
Actual Time 7:14 AM CDT 7:23 PM CDT
Civil Twilight 6:45 AM CDT 7:52 PM CDT
Nautical Twilight 6:12 AM CDT 8:25 PM CDT
Astronomical Twilight 5:38 AM CDT 9:00 PM CDT
Moon 9:06 PM CDT (9/22) 10:43 AM CDT (9/22)
Length of Visible Light 13h 06m
Length of Day
12h 09m
Waning Gibbous, 88% of the Moon is Illuminated
Sep 22
Waning Gibbous
Sep 26
Last Quarter
Oct 4
New
Oct 11
First Quarter
Oct 18
Full

Hourly Weather History & Observations

Time (CDT) Temp. Dew Point Humidity Pressure Visibility Wind Dir Wind Speed Gust Speed Precip Events Conditions
12:56 AM 54.0 °F 48.0 °F 80% 29.84 in 10.0 mi East 5.8 mph - N/A   Clear
1:56 AM 54.0 °F 48.0 °F 80% 29.83 in 10.0 mi East 5.8 mph - N/A   Clear
2:56 AM 53.1 °F 48.0 °F 83% 29.82 in 10.0 mi East 6.9 mph - N/A   Clear
3:56 AM 52.0 °F 48.0 °F 86% 29.81 in 10.0 mi ESE 6.9 mph - N/A   Clear
4:56 AM 54.0 °F 48.9 °F 83% 29.79 in 10.0 mi SE 8.1 mph - N/A   Clear
5:56 AM 55.0 °F 50.0 °F 83% 29.79 in 10.0 mi SE 9.2 mph - N/A   Clear
6:56 AM 54.0 °F 50.0 °F 86% 29.80 in 10.0 mi SE 8.1 mph - N/A   Clear
7:56 AM 57.0 °F 51.1 °F 81% 29.81 in 10.0 mi SSE 6.9 mph - N/A   Clear
8:56 AM 61.0 °F 52.0 °F 72% 29.80 in 10.0 mi SSE 11.5 mph - N/A   Clear
9:56 AM 66.9 °F 52.0 °F 59% 29.80 in 10.0 mi South 13.8 mph - N/A   Clear
10:56 AM 73.0 °F 51.1 °F 46% 29.79 in 10.0 mi SSW 17.3 mph 25.3 mph N/A   Clear
11:56 AM 77.0 °F 51.1 °F 40% 29.77 in 10.0 mi South 21.9 mph 26.5 mph N/A   Partly Cloudy
12:56 PM 81.0 °F 51.1 °F 35% 29.75 in 10.0 mi South 20.7 mph 27.6 mph N/A   Partly Cloudy
1:56 PM 82.0 °F 51.1 °F 34% 29.73 in 10.0 mi South 19.6 mph 29.9 mph N/A   Partly Cloudy
2:56 PM 82.9 °F 48.9 °F 31% 29.73 in 10.0 mi South 21.9 mph 33.4 mph N/A   Partly Cloudy
3:56 PM 82.9 °F 50.0 °F 32% 29.71 in 10.0 mi South 20.7 mph 27.6 mph N/A   Partly Cloudy
4:56 PM 82.0 °F 48.9 °F 31% 29.70 in 10.0 mi South 16.1 mph 31.1 mph N/A   Partly Cloudy
5:56 PM 80.1 °F 48.9 °F 34% 29.70 in 10.0 mi South 13.8 mph 25.3 mph N/A   Partly Cloudy
6:56 PM 77.0 °F 48.9 °F 37% 29.71 in 10.0 mi SSE 16.1 mph 24.2 mph N/A   Partly Cloudy
7:56 PM 73.0 °F 48.0 °F 41% 29.73 in 10.0 mi SSE 13.8 mph - N/A   Partly Cloudy
8:56 PM 71.1 °F 50.0 °F 47% 29.74 in 10.0 mi SSE 16.1 mph 28.8 mph N/A   Partly Cloudy
9:56 PM 69.1 °F 48.9 °F 49% 29.75 in 10.0 mi SSE 16.1 mph 24.2 mph N/A   Partly Cloudy
10:56 PM 66.9 °F 50.0 °F 54% 29.75 in 10.0 mi South 19.6 mph 27.6 mph N/A   Scattered Clouds
11:56 PM 66.0 °F 50.0 °F 56% 29.76 in 10.0 mi South 15.0 mph 25.3 mph N/A   Scattered Clouds